Change the Weather History Date:

Tuesday, January 28, 2014

  Actual Average Record
Temperature  
Mean Temperature -6 °F -  
Max Temperature 1 °F 29 °F 48 °F (2006)
Min Temperature -13 °F 12 °F -15 °F (1966)
Degree Days  
Heating Degree Days 71    
Moisture  
Dew Point -15 °F    
Average Humidity 62    
Maximum Humidity 71    
Minimum Humidity 54    
Precipitation  
Precipitation 0.00 in - - ()
Sea Level Pressure  
Sea Level Pressure 30.35 in    
Wind  
Wind Speed 14 mph (WSW)    
Max Wind Speed 20 mph    
Max Gust Speed 26 mph    
Visibility 10 miles    
Events      
Averages and records for this station are not official NWS values.
T = Trace of Precipitation, MM = Missing Value Source: NWS Daily Summary

Daily Weather History Graph

Daily Weather History Graph

Search for Another Location

Airport or City:

Trip Planner

Search our weather history database for the weather conditions in past years. The results will help you decide how hot, cold, wet, or windy it might be!

Date:

Astronomy

Jan. 28, 2014 Rise Set
Actual Time 7:09 AM CST 5:00 PM CST
Civil Twilight 6:39 AM CST 5:30 PM CST
Nautical Twilight 6:05 AM CST 6:04 PM CST
Astronomical Twilight 5:32 AM CST 6:37 PM CST
Moon 4:52 AM CST (1/28) 2:49 PM CST (1/28)
Length of Visible Light 10h 50m
Length of Day
9h 50m
Waning Crescent, 7% of the Moon is Illuminated
Jan 28
Waning Crescent
Jan 30
New
Feb 6
First Quarter
Feb 14
Full
Feb 22
Last Quarter

Hourly Weather History & Observations

Time (CST) Temp. Windchill Dew Point Humidity Pressure Visibility Wind Dir Wind Speed Gust Speed Precip Events Conditions
12:53 AM -9.9 °F -28.6 °F -20.0 °F 61% 30.42 in 10.0 mi West 10.4 mph - N/A   Clear
1:53 AM -9.9 °F -30.5 °F -20.0 °F 61% 30.42 in 10.0 mi West 12.7 mph - N/A   Clear
2:53 AM -11.0 °F -30.9 °F -20.0 °F 64% 30.42 in 10.0 mi West 11.5 mph - N/A   Clear
3:53 AM -11.9 °F -33.0 °F -20.0 °F 67% 30.42 in 10.0 mi West 12.7 mph - N/A   Clear
4:53 AM -11.9 °F -31.0 °F -20.0 °F 67% 30.41 in 10.0 mi West 10.4 mph - N/A   Clear
5:53 AM -13.0 °F -32.4 °F -20.0 °F 71% 30.42 in 10.0 mi West 10.4 mph - N/A   Clear
6:53 AM -13.0 °F -37.5 °F -20.0 °F 71% 30.43 in 10.0 mi WSW 17.3 mph - N/A   Clear
7:53 AM -11.9 °F -33.0 °F -20.0 °F 67% 30.42 in 10.0 mi West 12.7 mph - N/A   Clear
8:53 AM -9.9 °F -32.8 °F -18.9 °F 65% 30.42 in 10.0 mi West 16.1 mph - N/A   Clear
9:53 AM -7.1 °F -28.4 °F -17.0 °F 62% 30.43 in 10.0 mi WSW 15.0 mph - N/A   Clear
10:53 AM -2.9 °F -23.1 °F -16.1 °F 54% 30.41 in 10.0 mi WSW 15.0 mph - N/A   Clear
11:53 AM -0.9 °F -19.1 °F -14.1 °F 54% 30.39 in 10.0 mi West 12.7 mph - N/A   Clear
12:53 PM -0.9 °F -22.4 °F -13.0 °F 57% 30.36 in 10.0 mi WSW 18.4 mph - N/A   Clear
1:53 PM 1.0 °F -20.4 °F -11.9 °F 55% 30.33 in 10.0 mi West 19.6 mph - N/A   Clear
2:53 PM 1.9 °F -19.2 °F -11.0 °F 55% 30.31 in 10.0 mi West 19.6 mph 25.3 mph N/A   Clear
3:53 PM 1.0 °F -20.4 °F -11.9 °F 55% 30.31 in 10.0 mi WSW 19.6 mph - N/A   Clear
4:53 PM 1.0 °F -18.0 °F -11.9 °F 55% 30.29 in 10.0 mi WSW 15.0 mph 26.5 mph N/A   Clear
5:53 PM -0.9 °F -21.9 °F -11.9 °F 60% 30.29 in 10.0 mi WSW 17.3 mph 21.9 mph N/A   Clear
6:53 PM -0.9 °F -20.6 °F -11.9 °F 60% 30.29 in 10.0 mi WSW 15.0 mph - N/A   Clear
7:53 PM -2.0 °F -20.5 °F -11.9 °F 63% 30.27 in 10.0 mi WSW 12.7 mph - N/A   Clear
8:53 PM -2.0 °F -21.2 °F -11.9 °F 63% 30.26 in 10.0 mi WSW 13.8 mph - N/A   Clear
9:53 PM -0.9 °F -20.6 °F -9.9 °F 66% 30.25 in 10.0 mi WSW 15.0 mph - N/A   Clear
10:53 PM -0.0 °F -20.1 °F -9.0 °F 66% 30.24 in 10.0 mi West 16.1 mph - N/A   Clear
11:53 PM -0.9 °F -19.9 °F -9.9 °F 66% 30.23 in 10.0 mi WSW 13.8 mph - N/A   Clear